FLOCK 2E'-3

Last updated on Thu Apr 19 2018 00:15:04 GMT+0000 (Coordinated Universal Time)

1 41480U 98067JA 18108.41998481 .29365034 12631-4 75769-3 0 9995 2 41480 51.5903 234.1920 0009861 304.4876 56.0997 16.45076624110110

Satellite not in orbit